User: anonymous   Login
Location: Morlupo
(42.1333°N, 12.5000°E)
Time: 22:06:17
(UTC+00:00)
Language:

Meteor 2-9 Rocket - Orbit

View from above orbital plane
View from above orbital plane
View from above satellite
View from above satellite

Ground track
Ground track

The orbit data is extracted from the following two-line orbital elements,

1 13719U 82116B   20327.95303293 +.00000007 +00000-0 -27478-5 0  9998
2 13719 081.2560 211.1200 0071864 014.1849 356.4569 14.14661188957778
Epoch (UTC): 22 November 2020 22:52:22
Eccentricity: 0.0071864
inclination: 81.2560°
perigee height: 791 km
apogee height: 895 km
right ascension of ascending node: 211.1200°
argument of perigee: 14.1849°
revolutions per day: 14.14661188
mean anomaly at epoch: 356.4569°
orbit number at epoch: 95777

The dashed part of the orbit path shows where the satellite is in the earth's shadow,  

DLR